COSMOS 2491 DEB, 47110

Orbit data source: Space-Track

COSMOS 2491 DEB, 47110 is space debris in LEO originally from a launch on Wed, 25 Dec 2013 UTC launched from the Plesetsk Missile And Space Complex (PKMTR). Debris objects in space refer to the collection of defunct objects orbiting the Earth. Examples of debris include non-operational satellites, rocket bodies, and fragments generated from explosions, collisions, or faulty payload assembly.

Loading next visibility...
Identifier
47110, 2013-076AF
Orbit
LEO
Last TLE update
20 hours ago
Origin
Manufacturer
TsNIIKhM
Mission
Spacecraft
Bus & Motor
Unknown
Mass
Unknown
Launch date (UTC)
2013-12-25 (11 years ago)
Launch vehicle
Unknown
Launch site
Plesetsk Missile And Space Complex (PKMTR)
Object type
Payload
Rocket body
Debris
Shape & HBR
Unknown
Radar Cross Section
Small (<0.1 m²)

Expand to show TLE details & history

TLE from 20 hours ago
0 COSMOS 2491 DEB
1 47110U 13076AF  25128.47810070  .00002375  00000-0  13669-1 0  9998
2 47110  82.4302  35.2650 0136394  24.6901 336.0634 12.57159658240711
Epoch: 2025-05-08T11:28Z
Definitive object data (Epoch: 2025-05-08T11:28:27.9Z)
Latitude
-0.00007°
Longitude
-3.39928°
Altitude
1,340.239 km
Speed
7.232 km/s
True Right ascension
02h 21m 03s
True Declination
0° 00' 00"
Sunlit
Object was in daylight at TLE epoch
Visualization TLE readout
Latitude
-35.00227°
Longitude
-178.6292°
Altitude
1,551.813 km
Speed
7.043 km/s
Apparent Right ascension
12h 02m 49s
Apparent Declination
-74° 31' 56"
Sunlit
Object is in full shadow
Visualization observer readout
Local Sidereal Time
15:51:51
Azimuth
195.093° SSW
Elevation
-30.517°
Doppler factor
1
Orbital elements
Apogee altitude
1,538.549 km
Perigee altitude
1,325.497 km
Semi-major axis
7,810.16 km
Eccentricity
0.0136394
Inclination
82.4302°
RAAN
35.265°
Arg. of periapsis
24.6901°
True anomaly
335.41925°
Mean anomaly
336.0634°
Eccentric anomaly
335.74234°
Mean motion
3.14451 °/min
BSTAR
0.013669
Orbital period
114.49 mins
Loading maneuver chart data...
Loading SW <> Apogee altitude chart data...
Loading historical data...
Loading historical data...
Loading historical data...
Loading historical data...
Loading historical data...
Loading historical data...
Loading historical data...

COSMOS 2491 DEB Visibility forecast

Observer location: undefined°, undefined°

Span
Click to sort rows by Start time (UTC) header in descending order
Start Az.
Max El. time (UTC)
Max El. Az.
Max El.
End time (UTC)
End Az.
14 mins2025-05-09 18:07:48.893Z173.925° S2025-05-09 18:14:48.893Z73.362° E43.139°2025-05-09 18:21:48.893Z12.729° NNE
9 mins2025-05-09 20:06:48.893Z258.084° W2025-05-09 20:10:48.893Z295.162° NW20.541°2025-05-09 20:15:48.893Z337.702° N
13 mins2025-05-10 04:11:48.893Z17.308° NNE2025-05-10 04:17:48.893Z71.398° E27.277°2025-05-10 04:24:48.893Z127.984° SE
15 mins2025-05-10 06:06:48.893Z341.107° N2025-05-10 06:13:48.893Z263.301° W40.009°2025-05-10 06:21:48.893Z194.35° SSW
|